This demonstration page uses our WeatherBlox Daily Observations layout. Learn more.

Left ArrowRight Arrow

39.29038, -76.61219

Hourly Observations for November 24, 2018

Temp ( °F °C ) Dew Point ( °F °C ) Humidity (%) Winds ( mph kmh ) Pressure ( in mb ) Visibility ( mi km ) Precip ( " mm )
12:54 am 00:54 undefined 33 0.6 23 -5 66 66 undefined N/A 30.30 1026 N/A 0.00 0.00
1:54 am 01:54 undefined 34 1.1 25 -3.9 70 70 undefined N/A 30.30 1026 N/A 0.00 0.00
2:54 am 02:54 undefined 34 1.1 25 -3.9 70 70 undefined N/A 30.27 1025 N/A 0.00 0.00
3:54 am 03:54 undefined 34 1.1 25 -3.9 70 70 undefined N/A 30.24 1024 N/A 0.00 0.00
4:54 am 04:54 undefined 34 1.1 26 -3.3 73 73 undefined N/A 30.21 1023 N/A 0.00 0.00
5:54 am 05:54 undefined 34 1.1 25 -3.9 70 70 undefined N/A 30.18 1022 N/A 0.00 0.00
6:54 am 06:54 undefined 35 1.7 26 -3.3 70 70 undefined N/A 30.15 1021 N/A 0.00 0.00
7:54 am 07:54 undefined 36 2.2 27 -2.8 70 70 undefined N/A 30.12 1020 N/A 0.00 0.00
8:54 am 08:54 undefined 37 2.8 31 -0.6 79 79 undefined N/A 30.07 1018 N/A 0.00 0.00
9:54 am 09:54 undefined 40 4.4 32 0 73 73 undefined N/A 30.03 1017 N/A 0.00 0.00
10:54 am 10:54 undefined 42 5.6 34 1.1 73 73 undefined N/A 29.99 1016 N/A 0.00 0.00
11:54 am 11:54 undefined 44 6.7 36 2.2 73 73 undefined N/A 29.93 1014 N/A 0.00 0.00
12:54 pm 12:54 undefined 45 7.2 39 3.9 80 80 undefined N/A 29.91 1013 N/A 0.01 0.25
1:54 pm 13:54 undefined 46 7.8 42 5.6 86 86 undefined N/A 29.83 1010 N/A 0.04 1.02
2:54 pm 14:54 undefined 47 8.3 44 6.7 90 90 undefined N/A 29.78 1009 N/A 0.12 3.05
3:54 pm 15:54 undefined 49 9.4 46 7.8 90 90 undefined N/A 29.75 1008 N/A 0.31 7.87
4:54 pm 16:54 undefined 49 9.4 47 8.3 93 93 undefined N/A 29.72 1007 N/A 0.29 7.37
5:54 pm 17:54 undefined 42 5.6 39 3.9 89 89 undefined N/A 29.71 1006 N/A 0.56 14.22
6:54 pm 18:54 undefined 45 7.2 42 5.6 90 90 undefined N/A 29.71 1006 N/A 0.44 11.18
7:54 pm 19:54 undefined 50 10 44 6.7 80 80 undefined N/A 29.65 1004 N/A 0.25 6.35
8:54 pm 20:54 undefined 48 8.9 43 6.1 83 83 undefined N/A 29.67 1005 N/A 0.01 0.25
9:54 pm 21:54 undefined 46 7.8 42 5.6 86 86 undefined N/A 29.69 1005 N/A 0.00 0.00
10:54 pm 22:54 undefined 44 6.7 40 4.4 85 85 undefined N/A 29.69 1006 N/A 0.00 0.00
11:54 pm 23:54 undefined 43 6.1 39 3.9 86 86 undefined N/A 29.72 1007 N/A 0.00 0.00

Powered by AerisWeather